owner,sensor,date,latitude,longitude,vertical_datum,mass_concentration_of_oxygen_in_sea_water,qcFlag 
SCCF RECON,ioos:station:SCCF:16:1,2010-07-01T00:00:00Z,26.4345,-81.9647,2.342,4.75,1111122 
SCCF RECON,ioos:station:SCCF:16:1,2010-07-01T01:00:00Z,26.4345,-81.9647,2.223,4.78,1111122 
SCCF RECON,ioos:station:SCCF:16:1,2010-07-01T02:00:00Z,26.4345,-81.9647,2.177,4.69,1111122 
SCCF RECON,ioos:station:SCCF:16:1,2010-07-01T03:00:00Z,26.4345,-81.9647,2.195,4.77,1111122 
SCCF RECON,ioos:station:SCCF:16:1,2010-07-01T04:00:00Z,26.4345,-81.9647,2.297,4.67,1111122 
SCCF RECON,ioos:station:SCCF:16:1,2010-07-01T05:00:00Z,26.4345,-81.9647,2.426,4.68,1111122 
SCCF RECON,ioos:station:SCCF:16:1,2010-07-01T06:00:00Z,26.4345,-81.9647,2.603,4.68,1111122 
SCCF RECON,ioos:station:SCCF:16:1,2010-07-01T07:00:00Z,26.4345,-81.9647,2.711,4.62,1111122 
SCCF RECON,ioos:station:SCCF:16:1,2010-07-01T08:00:00Z,26.4345,-81.9647,2.692,4.57,1111122 
SCCF RECON,ioos:station:SCCF:16:1,2010-07-01T09:00:00Z,26.4345,-81.9647,2.676,4.56,1111122 
SCCF RECON,ioos:station:SCCF:16:1,2010-07-01T10:00:00Z,26.4345,-81.9647,2.632,4.54,1111122 
SCCF RECON,ioos:station:SCCF:16:1,2010-07-01T11:00:00Z,26.4345,-81.9647,2.583,4.37,1111122 
SCCF RECON,ioos:station:SCCF:16:1,2010-07-01T12:00:00Z,26.4345,-81.9647,2.56,4.25,1111122 
SCCF RECON,ioos:station:SCCF:16:1,2010-07-01T13:00:00Z,26.4345,-81.9647,2.521,4.35,1111122 
SCCF RECON,ioos:station:SCCF:16:1,2010-07-01T14:00:00Z,26.4345,-81.9647,2.421,4.51,1111122 
SCCF RECON,ioos:station:SCCF:16:1,2010-07-01T15:00:00Z,26.4345,-81.9647,2.439,4.57,1111122 
SCCF RECON,ioos:station:SCCF:16:1,2010-07-01T16:00:00Z,26.4345,-81.9647,2.505,4.49,1111122 
SCCF RECON,ioos:station:SCCF:16:1,2010-07-01T17:00:00Z,26.4345,-81.9647,2.579,4.49,1111122 
SCCF RECON,ioos:station:SCCF:16:1,2010-07-01T18:00:00Z,26.4345,-81.9647,2.678,5.47,1111122 
SCCF RECON,ioos:station:SCCF:16:1,2010-07-01T19:00:00Z,26.4345,-81.9647,2.716,5.52,1111122 
SCCF RECON,ioos:station:SCCF:16:1,2010-07-01T20:00:00Z,26.4345,-81.9647,2.745,5.3,1111122 
SCCF RECON,ioos:station:SCCF:16:1,2010-07-01T21:00:00Z,26.4345,-81.9647,2.707,5.53,1111122 
SCCF RECON,ioos:station:SCCF:16:1,2010-07-01T22:00:00Z,26.4345,-81.9647,2.588,5.29,1111122 
SCCF RECON,ioos:station:SCCF:16:1,2010-07-01T23:00:00Z,26.4345,-81.9647,2.519,5.37,1111122 
SCCF RECON,ioos:station:SCCF:16:1,2010-07-02T00:00:00Z,26.4345,-81.9647,2.368,5.07,1111122 
SCCF RECON,ioos:station:SCCF:16:1,2010-07-02T01:00:00Z,26.4345,-81.9647,2.243,4.94,1111122 
SCCF RECON,ioos:station:SCCF:16:1,2010-07-02T02:00:00Z,26.4345,-81.9647,2.164,4.82,1111122 
SCCF RECON,ioos:station:SCCF:16:1,2010-07-02T03:00:00Z,26.4345,-81.9647,2.174,4.97,1111122 
SCCF RECON,ioos:station:SCCF:16:1,2010-07-02T04:00:00Z,26.4345,-81.9647,2.229,4.96,1111122 
SCCF RECON,ioos:station:SCCF:16:1,2010-07-02T05:00:00Z,26.4345,-81.9647,2.316,4.96,1111122 
SCCF RECON,ioos:station:SCCF:16:1,2010-07-02T06:00:00Z,26.4345,-81.9647,2.455,5.07,1111122 
SCCF RECON,ioos:station:SCCF:16:1,2010-07-02T07:00:00Z,26.4345,-81.9647,2.585,5.08,1111122 
SCCF RECON,ioos:station:SCCF:16:1,2010-07-02T08:00:00Z,26.4345,-81.9647,2.629,5.02,1111122 
SCCF RECON,ioos:station:SCCF:16:1,2010-07-02T09:00:00Z,26.4345,-81.9647,2.638,5.01,1111122 
SCCF RECON,ioos:station:SCCF:16:1,2010-07-02T10:00:00Z,26.4345,-81.9647,2.632,4.92,1111122 
SCCF RECON,ioos:station:SCCF:16:1,2010-07-02T11:00:00Z,26.4345,-81.9647,2.568,4.85,1111122 
SCCF RECON,ioos:station:SCCF:16:1,2010-07-02T12:00:00Z,26.4345,-81.9647,2.507,4.72,1111122 
SCCF RECON,ioos:station:SCCF:16:1,2010-07-02T13:00:00Z,26.4345,-81.9647,2.444,4.62,1111122 
SCCF RECON,ioos:station:SCCF:16:1,2010-07-02T14:00:00Z,26.4345,-81.9647,2.377,4.75,1111122 
SCCF RECON,ioos:station:SCCF:16:1,2010-07-02T15:00:00Z,26.4345,-81.9647,2.3,4.67,1111122 
SCCF RECON,ioos:station:SCCF:16:1,2010-07-02T16:00:00Z,26.4345,-81.9647,2.385,4.72,1111122 
SCCF RECON,ioos:station:SCCF:16:1,2010-07-02T17:00:00Z,26.4345,-81.9647,2.429,4.73,1111122 
SCCF RECON,ioos:station:SCCF:16:1,2010-07-02T18:00:00Z,26.4345,-81.9647,2.491,5.93,1111122 
SCCF RECON,ioos:station:SCCF:16:1,2010-07-02T19:00:00Z,26.4345,-81.9647,2.578,6.11,1111122 
SCCF RECON,ioos:station:SCCF:16:1,2010-07-02T20:00:00Z,26.4345,-81.9647,2.603,6.04,1111122 
SCCF RECON,ioos:station:SCCF:16:1,2010-07-02T21:00:00Z,26.4345,-81.9647,2.616,5.69,1111122 
SCCF RECON,ioos:station:SCCF:16:1,2010-07-02T22:00:00Z,26.4345,-81.9647,2.586,5.24,1111122 
SCCF RECON,ioos:station:SCCF:16:1,2010-07-02T23:00:00Z,26.4345,-81.9647,2.509,5.26,1111122 
SCCF RECON,ioos:station:SCCF:16:1,2010-07-03T00:00:00Z,26.4345,-81.9647,2.449,5.91,1111122 
SCCF RECON,ioos:station:SCCF:16:1,2010-07-03T01:00:00Z,26.4345,-81.9647,2.358,5.76,1111122 
SCCF RECON,ioos:station:SCCF:16:1,2010-07-03T02:00:00Z,26.4345,-81.9647,2.229,5.55,1111122 
SCCF RECON,ioos:station:SCCF:16:1,2010-07-03T03:00:00Z,26.4345,-81.9647,2.233,5.08,1111122 
SCCF RECON,ioos:station:SCCF:16:1,2010-07-03T04:00:00Z,26.4345,-81.9647,2.21,5.19,1111122 
SCCF RECON,ioos:station:SCCF:16:1,2010-07-03T05:00:00Z,26.4345,-81.9647,2.324,4.71,1111122 
SCCF RECON,ioos:station:SCCF:16:1,2010-07-03T06:00:00Z,26.4345,-81.9647,2.447,4.84,1111122 
SCCF RECON,ioos:station:SCCF:16:1,2010-07-03T07:00:00Z,26.4345,-81.9647,2.577,5.14,1111122 
SCCF RECON,ioos:station:SCCF:16:1,2010-07-03T08:00:00Z,26.4345,-81.9647,2.676,4.84,1111122 
SCCF RECON,ioos:station:SCCF:16:1,2010-07-03T09:00:00Z,26.4345,-81.9647,2.674,4.97,1111122 
SCCF RECON,ioos:station:SCCF:16:1,2010-07-03T10:00:00Z,26.4345,-81.9647,2.745,5.14,1111122 
SCCF RECON,ioos:station:SCCF:16:1,2010-07-03T11:00:00Z,26.4345,-81.9647,2.756,5.18,1111122 
SCCF RECON,ioos:station:SCCF:16:1,2010-07-03T12:00:00Z,26.4345,-81.9647,2.639,5.04,1111122 
SCCF RECON,ioos:station:SCCF:16:1,2010-07-03T13:00:00Z,26.4345,-81.9647,2.549,4.67,1111122 
SCCF RECON,ioos:station:SCCF:16:1,2010-07-03T14:00:00Z,26.4345,-81.9647,2.493,4.25,1111122 
SCCF RECON,ioos:station:SCCF:16:1,2010-07-03T15:00:00Z,26.4345,-81.9647,2.415,4.96,1111122 
SCCF RECON,ioos:station:SCCF:16:1,2010-07-03T16:00:00Z,26.4345,-81.9647,2.369,4.92,1111122 
SCCF RECON,ioos:station:SCCF:16:1,2010-07-03T17:00:00Z,26.4345,-81.9647,2.334,4.37,1111122 
SCCF RECON,ioos:station:SCCF:16:1,2010-07-03T18:00:00Z,26.4345,-81.9647,2.381,4.73,1111122 
SCCF RECON,ioos:station:SCCF:16:1,2010-07-03T19:00:00Z,26.4345,-81.9647,2.501,4.43,1111122 
SCCF RECON,ioos:station:SCCF:16:1,2010-07-03T20:00:00Z,26.4345,-81.9647,2.59,5.59,1111122 
SCCF RECON,ioos:station:SCCF:16:1,2010-07-03T21:00:00Z,26.4345,-81.9647,2.648,6.0,1111122 
SCCF RECON,ioos:station:SCCF:16:1,2010-07-03T22:00:00Z,26.4345,-81.9647,2.699,5.62,1111122 
SCCF RECON,ioos:station:SCCF:16:1,2010-07-03T23:00:00Z,26.4345,-81.9647,2.639,5.63,1111122 
SCCF RECON,ioos:station:SCCF:16:1,2010-07-04T00:00:00Z,26.4345,-81.9647,2.541,5.27,1111122 
SCCF RECON,ioos:station:SCCF:16:1,2010-07-04T01:00:00Z,26.4345,-81.9647,2.489,4.82,1111122 
SCCF RECON,ioos:station:SCCF:16:1,2010-07-04T02:00:00Z,26.4345,-81.9647,2.443,4.81,1111122 
SCCF RECON,ioos:station:SCCF:16:1,2010-07-04T03:00:00Z,26.4345,-81.9647,2.381,4.74,1111122 
SCCF RECON,ioos:station:SCCF:16:1,2010-07-04T04:00:00Z,26.4345,-81.9647,2.309,5.2,1111122 
SCCF RECON,ioos:station:SCCF:16:1,2010-07-04T05:00:00Z,26.4345,-81.9647,2.378,4.94,1111122 
SCCF RECON,ioos:station:SCCF:16:1,2010-07-04T06:00:00Z,26.4345,-81.9647,2.437,4.78,1111122 
SCCF RECON,ioos:station:SCCF:16:1,2010-07-04T07:00:00Z,26.4345,-81.9647,2.554,5.05,1111122 
SCCF RECON,ioos:station:SCCF:16:1,2010-07-04T08:00:00Z,26.4345,-81.9647,2.675,4.87,1111122 
SCCF RECON,ioos:station:SCCF:16:1,2010-07-04T09:00:00Z,26.4345,-81.9647,2.749,4.91,1111122 
SCCF RECON,ioos:station:SCCF:16:1,2010-07-04T10:00:00Z,26.4345,-81.9647,2.766,4.77,1111122 
SCCF RECON,ioos:station:SCCF:16:1,2010-07-04T11:00:00Z,26.4345,-81.9647,2.793,5.07,1111122 
SCCF RECON,ioos:station:SCCF:16:1,2010-07-04T12:00:00Z,26.4345,-81.9647,2.717,5.01,1111122 
SCCF RECON,ioos:station:SCCF:16:1,2010-07-04T13:00:00Z,26.4345,-81.9647,2.651,4.55,1111122 
SCCF RECON,ioos:station:SCCF:16:1,2010-07-04T14:00:00Z,26.4345,-81.9647,2.585,4.81,1111122 
SCCF RECON,ioos:station:SCCF:16:1,2010-07-04T15:00:00Z,26.4345,-81.9647,2.457,4.89,1111122 
SCCF RECON,ioos:station:SCCF:16:1,2010-07-04T16:00:00Z,26.4345,-81.9647,2.351,4.87,1111122 
SCCF RECON,ioos:station:SCCF:16:1,2010-07-04T17:00:00Z,26.4345,-81.9647,2.321,4.52,1111122 
SCCF RECON,ioos:station:SCCF:16:1,2010-07-04T18:00:00Z,26.4345,-81.9647,2.293,4.53,1111122 
SCCF RECON,ioos:station:SCCF:16:1,2010-07-04T19:00:00Z,26.4345,-81.9647,2.316,4.46,1111122 
SCCF RECON,ioos:station:SCCF:16:1,2010-07-04T20:00:00Z,26.4345,-81.9647,2.457,4.42,1111122 
SCCF RECON,ioos:station:SCCF:16:1,2010-07-04T21:00:00Z,26.4345,-81.9647,2.536,4.57,1111122 
SCCF RECON,ioos:station:SCCF:16:1,2010-07-04T22:00:00Z,26.4345,-81.9647,2.516,4.82,1111122 
SCCF RECON,ioos:station:SCCF:16:1,2010-07-04T23:00:00Z,26.4345,-81.9647,2.559,5.12,1111122 
SCCF RECON,ioos:station:SCCF:16:1,2010-07-05T00:00:00Z,26.4345,-81.9647,2.58,5.01,1111122 
SCCF RECON,ioos:station:SCCF:16:1,2010-07-05T01:00:00Z,26.4345,-81.9647,2.535,5.21,1111122 
SCCF RECON,ioos:station:SCCF:16:1,2010-07-05T02:00:00Z,26.4345,-81.9647,2.557,4.73,1111122 
SCCF RECON,ioos:station:SCCF:16:1,2010-07-05T03:00:00Z,26.4345,-81.9647,2.508,4.7,1111122 
SCCF RECON,ioos:station:SCCF:16:1,2010-07-05T04:00:00Z,26.4345,-81.9647,2.453,4.76,1111122 
SCCF RECON,ioos:station:SCCF:16:1,2010-07-05T05:00:00Z,26.4345,-81.9647,2.413,4.73,1111122 
SCCF RECON,ioos:station:SCCF:16:1,2010-07-05T06:00:00Z,26.4345,-81.9647,2.412,4.61,1111122 
SCCF RECON,ioos:station:SCCF:16:1,2010-07-05T07:00:00Z,26.4345,-81.9647,2.492,4.8,1111122 
SCCF RECON,ioos:station:SCCF:16:1,2010-07-05T08:00:00Z,26.4345,-81.9647,2.666,4.83,1111122 
SCCF RECON,ioos:station:SCCF:16:1,2010-07-05T09:00:00Z,26.4345,-81.9647,2.745,4.94,1111122 
SCCF RECON,ioos:station:SCCF:16:1,2010-07-05T10:00:00Z,26.4345,-81.9647,2.711,4.93,1111122 
SCCF RECON,ioos:station:SCCF:16:1,2010-07-05T11:00:00Z,26.4345,-81.9647,2.759,4.9,1111122 
SCCF RECON,ioos:station:SCCF:16:1,2010-07-05T12:00:00Z,26.4345,-81.9647,2.777,4.87,1111122 
SCCF RECON,ioos:station:SCCF:16:1,2010-07-05T13:00:00Z,26.4345,-81.9647,2.738,4.88,1111122 
SCCF RECON,ioos:station:SCCF:16:1,2010-07-05T14:00:00Z,26.4345,-81.9647,2.643,4.55,1111122 
SCCF RECON,ioos:station:SCCF:16:1,2010-07-05T15:00:00Z,26.4345,-81.9647,2.561,4.67,1111122 
SCCF RECON,ioos:station:SCCF:16:1,2010-07-05T16:00:00Z,26.4345,-81.9647,2.44,4.8,1111122 
SCCF RECON,ioos:station:SCCF:16:1,2010-07-05T17:00:00Z,26.4345,-81.9647,2.305,4.8,1111122 
SCCF RECON,ioos:station:SCCF:16:1,2010-07-05T18:00:00Z,26.4345,-81.9647,2.234,4.71,1111122 
SCCF RECON,ioos:station:SCCF:16:1,2010-07-05T19:00:00Z,26.4345,-81.9647,2.269,4.73,1111122 
SCCF RECON,ioos:station:SCCF:16:1,2010-07-05T20:00:00Z,26.4345,-81.9647,2.764,4.78,1111122 
SCCF RECON,ioos:station:SCCF:16:1,2010-07-05T21:00:00Z,26.4345,-81.9647,2.302,4.52,1111122 
SCCF RECON,ioos:station:SCCF:16:1,2010-07-05T22:00:00Z,26.4345,-81.9647,2.416,4.7,1111122 
SCCF RECON,ioos:station:SCCF:16:1,2010-07-05T23:00:00Z,26.4345,-81.9647,2.44,4.66,1111122 
SCCF RECON,ioos:station:SCCF:16:1,2010-07-06T00:00:00Z,26.4345,-81.9647,2.477,4.73,1111122 
SCCF RECON,ioos:station:SCCF:16:1,2010-07-06T01:00:00Z,26.4345,-81.9647,2.534,4.81,1111122 
SCCF RECON,ioos:station:SCCF:16:1,2010-07-06T02:00:00Z,26.4345,-81.9647,2.443,4.64,1111122 
SCCF RECON,ioos:station:SCCF:16:1,2010-07-06T03:00:00Z,26.4345,-81.9647,2.466,4.36,1111122 
SCCF RECON,ioos:station:SCCF:16:1,2010-07-06T04:00:00Z,26.4345,-81.9647,2.479,4.54,1111122 
SCCF RECON,ioos:station:SCCF:16:1,2010-07-06T05:00:00Z,26.4345,-81.9647,2.467,4.75,1111122 
SCCF RECON,ioos:station:SCCF:16:1,2010-07-06T06:00:00Z,26.4345,-81.9647,2.437,4.61,1111122 
SCCF RECON,ioos:station:SCCF:16:1,2010-07-06T07:00:00Z,26.4345,-81.9647,2.442,4.43,1111122 
SCCF RECON,ioos:station:SCCF:16:1,2010-07-06T08:00:00Z,26.4345,-81.9647,2.525,4.63,1111122 
SCCF RECON,ioos:station:SCCF:16:1,2010-07-06T09:00:00Z,26.4345,-81.9647,2.604,4.63,1111122 
SCCF RECON,ioos:station:SCCF:16:1,2010-07-06T10:00:00Z,26.4345,-81.9647,2.688,4.95,1111122 
SCCF RECON,ioos:station:SCCF:16:1,2010-07-06T11:00:00Z,26.4345,-81.9647,2.736,5.07,1111122 
SCCF RECON,ioos:station:SCCF:16:1,2010-07-06T12:00:00Z,26.4345,-81.9647,2.767,5.06,1111122 
SCCF RECON,ioos:station:SCCF:16:1,2010-07-06T13:00:00Z,26.4345,-81.9647,2.748,5.0,1111122 
SCCF RECON,ioos:station:SCCF:16:1,2010-07-06T14:00:00Z,26.4345,-81.9647,2.665,4.78,1111122 
SCCF RECON,ioos:station:SCCF:16:1,2010-07-06T15:00:00Z,26.4345,-81.9647,2.578,4.87,1111122 
SCCF RECON,ioos:station:SCCF:16:1,2010-07-06T16:00:00Z,26.4345,-81.9647,2.472,5.06,1111122 
SCCF RECON,ioos:station:SCCF:16:1,2010-07-06T17:00:00Z,26.4345,-81.9647,2.365,4.99,1111122 
SCCF RECON,ioos:station:SCCF:16:1,2010-07-06T18:00:00Z,26.4345,-81.9647,2.275,4.94,1111122 
SCCF RECON,ioos:station:SCCF:16:1,2010-07-06T19:00:00Z,26.4345,-81.9647,2.183,4.75,1111122 
SCCF RECON,ioos:station:SCCF:16:1,2010-07-06T20:00:00Z,26.4345,-81.9647,2.205,4.69,1111122 
SCCF RECON,ioos:station:SCCF:16:1,2010-07-06T21:00:00Z,26.4345,-81.9647,2.266,4.5,1111122 
SCCF RECON,ioos:station:SCCF:16:1,2010-07-06T22:00:00Z,26.4345,-81.9647,2.391,4.89,1111122 
SCCF RECON,ioos:station:SCCF:16:1,2010-07-06T23:00:00Z,26.4345,-81.9647,2.461,5.13,1111122 
SCCF RECON,ioos:station:SCCF:16:1,2010-07-07T00:00:00Z,26.4345,-81.9647,2.517,5.23,1111122 
SCCF RECON,ioos:station:SCCF:16:1,2010-07-07T01:00:00Z,26.4345,-81.9647,2.545,5.5,1111122 
SCCF RECON,ioos:station:SCCF:16:1,2010-07-07T02:00:00Z,26.4345,-81.9647,2.561,5.42,1111122 
SCCF RECON,ioos:station:SCCF:16:1,2010-07-07T03:00:00Z,26.4345,-81.9647,2.539,5.14,1111122 
SCCF RECON,ioos:station:SCCF:16:1,2010-07-07T04:00:00Z,26.4345,-81.9647,2.542,5.21,1111122 
SCCF RECON,ioos:station:SCCF:16:1,2010-07-07T05:00:00Z,26.4345,-81.9647,2.521,5.21,1111122 
SCCF RECON,ioos:station:SCCF:16:1,2010-07-07T06:00:00Z,26.4345,-81.9647,2.505,5.22,1111122 
SCCF RECON,ioos:station:SCCF:16:1,2010-07-07T07:00:00Z,26.4345,-81.9647,2.48,5.13,1111122 
SCCF RECON,ioos:station:SCCF:16:1,2010-07-07T08:00:00Z,26.4345,-81.9647,2.51,5.07,1111122 
SCCF RECON,ioos:station:SCCF:16:1,2010-07-07T09:00:00Z,26.4345,-81.9647,2.549,5.14,1111122 
SCCF RECON,ioos:station:SCCF:16:1,2010-07-07T10:00:00Z,26.4345,-81.9647,2.623,5.13,1111122 
SCCF RECON,ioos:station:SCCF:16:1,2010-07-07T11:00:00Z,26.4345,-81.9647,2.695,5.22,1111122 
SCCF RECON,ioos:station:SCCF:16:1,2010-07-07T12:00:00Z,26.4345,-81.9647,2.738,5.23,1111122 
SCCF RECON,ioos:station:SCCF:16:1,2010-07-07T13:00:00Z,26.4345,-81.9647,2.753,5.25,1111122 
SCCF RECON,ioos:station:SCCF:16:1,2010-07-07T14:00:00Z,26.4345,-81.9647,2.795,5.3,1111122 
SCCF RECON,ioos:station:SCCF:16:1,2010-07-07T15:00:00Z,26.4345,-81.9647,2.721,5.36,1111122 
SCCF RECON,ioos:station:SCCF:16:1,2010-07-07T16:00:00Z,26.4345,-81.9647,2.556,5.12,1111122 
SCCF RECON,ioos:station:SCCF:16:1,2010-07-07T17:00:00Z,26.4345,-81.9647,2.345,5.31,1111122 
SCCF RECON,ioos:station:SCCF:16:1,2010-07-07T18:00:00Z,26.4345,-81.9647,2.193,5.13,1111122 
SCCF RECON,ioos:station:SCCF:16:1,2010-07-07T19:00:00Z,26.4345,-81.9647,2.062,5.25,1111122 
SCCF RECON,ioos:station:SCCF:16:1,2010-07-07T20:00:00Z,26.4345,-81.9647,2.021,5.48,1111122 
SCCF RECON,ioos:station:SCCF:16:1,2010-07-07T21:00:00Z,26.4345,-81.9647,2.035,5.41,1111122 
SCCF RECON,ioos:station:SCCF:16:1,2010-07-07T22:00:00Z,26.4345,-81.9647,2.136,5.32,1111122 
SCCF RECON,ioos:station:SCCF:16:1,2010-07-07T23:00:00Z,26.4345,-81.9647,2.268,5.5,1111122 
SCCF RECON,ioos:station:SCCF:16:1,2010-07-08T00:00:00Z,26.4345,-81.9647,2.337,6.37,1111122 
SCCF RECON,ioos:station:SCCF:16:1,2010-07-08T01:00:00Z,26.4345,-81.9647,2.436,5.84,1111122 
SCCF RECON,ioos:station:SCCF:16:1,2010-07-08T02:00:00Z,26.4345,-81.9647,2.501,5.9,1111122 
SCCF RECON,ioos:station:SCCF:16:1,2010-07-08T03:00:00Z,26.4345,-81.9647,2.575,5.71,1111122 
SCCF RECON,ioos:station:SCCF:16:1,2010-07-08T04:00:00Z,26.4345,-81.9647,2.595,5.64,1111122 
SCCF RECON,ioos:station:SCCF:16:1,2010-07-08T05:00:00Z,26.4345,-81.9647,2.539,5.56,1111122 
SCCF RECON,ioos:station:SCCF:16:1,2010-07-08T06:00:00Z,26.4345,-81.9647,2.518,5.49,1111122 
SCCF RECON,ioos:station:SCCF:16:1,2010-07-08T07:00:00Z,26.4345,-81.9647,2.444,5.4,1111122 
SCCF RECON,ioos:station:SCCF:16:1,2010-07-08T08:00:00Z,26.4345,-81.9647,2.411,5.11,1111122 
SCCF RECON,ioos:station:SCCF:16:1,2010-07-08T09:00:00Z,26.4345,-81.9647,2.465,5.19,1111122 
SCCF RECON,ioos:station:SCCF:16:1,2010-07-08T10:00:00Z,26.4345,-81.9647,2.546,5.25,1111122 
SCCF RECON,ioos:station:SCCF:16:1,2010-07-08T11:00:00Z,26.4345,-81.9647,2.673,5.4,1111122 
SCCF RECON,ioos:station:SCCF:16:1,2010-07-08T12:00:00Z,26.4345,-81.9647,2.762,5.41,1111122 
SCCF RECON,ioos:station:SCCF:16:1,2010-07-08T13:00:00Z,26.4345,-81.9647,2.807,5.43,1111122 
SCCF RECON,ioos:station:SCCF:16:1,2010-07-08T14:00:00Z,26.4345,-81.9647,2.829,5.45,1111122 
SCCF RECON,ioos:station:SCCF:16:1,2010-07-08T15:00:00Z,26.4345,-81.9647,2.822,5.49,1111122 
SCCF RECON,ioos:station:SCCF:16:1,2010-07-08T16:00:00Z,26.4345,-81.9647,2.698,4.87,1111122 
SCCF RECON,ioos:station:SCCF:16:1,2010-07-08T17:00:00Z,26.4345,-81.9647,2.505,5.6,1111122 
SCCF RECON,ioos:station:SCCF:16:1,2010-07-08T18:00:00Z,26.4345,-81.9647,2.316,5.51,1111122 
SCCF RECON,ioos:station:SCCF:16:1,2010-07-08T19:00:00Z,26.4345,-81.9647,2.16,5.81,1111122 
SCCF RECON,ioos:station:SCCF:16:1,2010-07-08T20:00:00Z,26.4345,-81.9647,1.974,6.28,1111122 
SCCF RECON,ioos:station:SCCF:16:1,2010-07-08T21:00:00Z,26.4345,-81.9647,1.904,6.5,1111122 
SCCF RECON,ioos:station:SCCF:16:1,2010-07-08T22:00:00Z,26.4345,-81.9647,1.949,6.47,1111122 
SCCF RECON,ioos:station:SCCF:16:1,2010-07-08T23:00:00Z,26.4345,-81.9647,2.08,6.49,1111122 
SCCF RECON,ioos:station:SCCF:16:1,2010-07-09T00:00:00Z,26.4345,-81.9647,2.228,6.29,1111122 
SCCF RECON,ioos:station:SCCF:16:1,2010-07-09T01:00:00Z,26.4345,-81.9647,2.392,6.52,1111122 
SCCF RECON,ioos:station:SCCF:16:1,2010-07-09T02:00:00Z,26.4345,-81.9647,2.576,5.7,1111122 
SCCF RECON,ioos:station:SCCF:16:1,2010-07-09T03:00:00Z,26.4345,-81.9647,2.649,5.45,1111122 
SCCF RECON,ioos:station:SCCF:16:1,2010-07-09T04:00:00Z,26.4345,-81.9647,2.667,5.26,1111122 
SCCF RECON,ioos:station:SCCF:16:1,2010-07-09T05:00:00Z,26.4345,-81.9647,2.639,5.15,1111122 
SCCF RECON,ioos:station:SCCF:16:1,2010-07-09T06:00:00Z,26.4345,-81.9647,2.566,4.8,1111122 
SCCF RECON,ioos:station:SCCF:16:1,2010-07-09T07:00:00Z,26.4345,-81.9647,2.559,4.83,1111122 
SCCF RECON,ioos:station:SCCF:16:1,2010-07-09T08:00:00Z,26.4345,-81.9647,2.556,4.46,1111122 
SCCF RECON,ioos:station:SCCF:16:1,2010-07-09T09:00:00Z,26.4345,-81.9647,2.521,4.46,1111122 
SCCF RECON,ioos:station:SCCF:16:1,2010-07-09T10:00:00Z,26.4345,-81.9647,2.574,4.43,1111122 
SCCF RECON,ioos:station:SCCF:16:1,2010-07-09T11:00:00Z,26.4345,-81.9647,2.664,4.54,1111122 
SCCF RECON,ioos:station:SCCF:16:1,2010-07-09T12:00:00Z,26.4345,-81.9647,2.782,4.98,1111122 
SCCF RECON,ioos:station:SCCF:16:1,2010-07-09T13:00:00Z,26.4345,-81.9647,2.881,4.98,1111122 
SCCF RECON,ioos:station:SCCF:16:1,2010-07-09T14:00:00Z,26.4345,-81.9647,2.927,4.98,1111122 
SCCF RECON,ioos:station:SCCF:16:1,2010-07-09T15:00:00Z,26.4345,-81.9647,2.956,5.24,1111122 
SCCF RECON,ioos:station:SCCF:16:1,2010-07-09T16:00:00Z,26.4345,-81.9647,2.893,5.17,1111122 
SCCF RECON,ioos:station:SCCF:16:1,2010-07-09T17:00:00Z,26.4345,-81.9647,2.724,5.39,1111122 
SCCF RECON,ioos:station:SCCF:16:1,2010-07-09T18:00:00Z,26.4345,-81.9647,2.509,5.65,1111122 
SCCF RECON,ioos:station:SCCF:16:1,2010-07-09T19:00:00Z,26.4345,-81.9647,2.297,5.3,1111122 
SCCF RECON,ioos:station:SCCF:16:1,2010-07-09T20:00:00Z,26.4345,-81.9647,2.114,5.68,1111122 
SCCF RECON,ioos:station:SCCF:16:1,2010-07-09T21:00:00Z,26.4345,-81.9647,1.907,6.05,1111122 
SCCF RECON,ioos:station:SCCF:16:1,2010-07-09T22:00:00Z,26.4345,-81.9647,1.834,6.4,1111122 
SCCF RECON,ioos:station:SCCF:16:1,2010-07-09T23:00:00Z,26.4345,-81.9647,1.928,6.51,1111122 
SCCF RECON,ioos:station:SCCF:16:1,2010-07-10T00:00:00Z,26.4345,-81.9647,2.109,6.22,1111122 
SCCF RECON,ioos:station:SCCF:16:1,2010-07-10T01:00:00Z,26.4345,-81.9647,2.279,5.97,1111122 
SCCF RECON,ioos:station:SCCF:16:1,2010-07-10T02:00:00Z,26.4345,-81.9647,2.477,6.22,1111122 
SCCF RECON,ioos:station:SCCF:16:1,2010-07-10T03:00:00Z,26.4345,-81.9647,2.595,5.87,1111122 
SCCF RECON,ioos:station:SCCF:16:1,2010-07-10T04:00:00Z,26.4345,-81.9647,2.663,5.9,1111122 
SCCF RECON,ioos:station:SCCF:16:1,2010-07-10T05:00:00Z,26.4345,-81.9647,2.69,5.87,1111122 
SCCF RECON,ioos:station:SCCF:16:1,2010-07-10T06:00:00Z,26.4345,-81.9647,2.621,5.78,1111122 
SCCF RECON,ioos:station:SCCF:16:1,2010-07-10T07:00:00Z,26.4345,-81.9647,2.566,5.46,1111122 
SCCF RECON,ioos:station:SCCF:16:1,2010-07-10T08:00:00Z,26.4345,-81.9647,2.535,5.52,1111122 
SCCF RECON,ioos:station:SCCF:16:1,2010-07-10T09:00:00Z,26.4345,-81.9647,2.533,5.48,1111122 
SCCF RECON,ioos:station:SCCF:16:1,2010-07-10T10:00:00Z,26.4345,-81.9647,2.543,5.41,1111122 
SCCF RECON,ioos:station:SCCF:16:1,2010-07-10T11:00:00Z,26.4345,-81.9647,2.62,5.3,1111122 
SCCF RECON,ioos:station:SCCF:16:1,2010-07-10T12:00:00Z,26.4345,-81.9647,2.711,5.38,1111122 
SCCF RECON,ioos:station:SCCF:16:1,2010-07-10T13:00:00Z,26.4345,-81.9647,2.809,5.35,1111122 
SCCF RECON,ioos:station:SCCF:16:1,2010-07-10T14:00:00Z,26.4345,-81.9647,2.921,5.14,1111122 
SCCF RECON,ioos:station:SCCF:16:1,2010-07-10T15:00:00Z,26.4345,-81.9647,2.957,5.23,1111122 
SCCF RECON,ioos:station:SCCF:16:1,2010-07-10T16:00:00Z,26.4345,-81.9647,2.988,5.2,1111122 
SCCF RECON,ioos:station:SCCF:16:1,2010-07-10T17:00:00Z,26.4345,-81.9647,2.887,5.05,1111122 
SCCF RECON,ioos:station:SCCF:16:1,2010-07-10T18:00:00Z,26.4345,-81.9647,2.73,5.22,1111122 
SCCF RECON,ioos:station:SCCF:16:1,2010-07-10T19:00:00Z,26.4345,-81.9647,2.506,5.49,1111122 
SCCF RECON,ioos:station:SCCF:16:1,2010-07-10T20:00:00Z,26.4345,-81.9647,2.238,5.61,1111122 
SCCF RECON,ioos:station:SCCF:16:1,2010-07-10T21:00:00Z,26.4345,-81.9647,1.996,6.1,1111122 
SCCF RECON,ioos:station:SCCF:16:1,2010-07-10T22:00:00Z,26.4345,-81.9647,1.831,5.98,1111122 
SCCF RECON,ioos:station:SCCF:16:1,2010-07-10T23:00:00Z,26.4345,-81.9647,1.762,6.43,1111122 
SCCF RECON,ioos:station:SCCF:16:1,2010-07-11T00:00:00Z,26.4345,-81.9647,1.891,6.26,1111122 
SCCF RECON,ioos:station:SCCF:16:1,2010-07-11T01:00:00Z,26.4345,-81.9647,2.131,5.71,1111122 
SCCF RECON,ioos:station:SCCF:16:1,2010-07-11T02:00:00Z,26.4345,-81.9647,2.328,5.67,1111122 
SCCF RECON,ioos:station:SCCF:16:1,2010-07-11T03:00:00Z,26.4345,-81.9647,2.49,5.95,1111122 
SCCF RECON,ioos:station:SCCF:16:1,2010-07-11T04:00:00Z,26.4345,-81.9647,2.618,5.73,1111122 
SCCF RECON,ioos:station:SCCF:16:1,2010-07-11T05:00:00Z,26.4345,-81.9647,2.699,5.67,1111122 
SCCF RECON,ioos:station:SCCF:16:1,2010-07-11T06:00:00Z,26.4345,-81.9647,2.693,5.51,1111122 
SCCF RECON,ioos:station:SCCF:16:1,2010-07-11T07:00:00Z,26.4345,-81.9647,2.6,5.5,1111122 
SCCF RECON,ioos:station:SCCF:16:1,2010-07-11T08:00:00Z,26.4345,-81.9647,2.541,5.13,1111122 
SCCF RECON,ioos:station:SCCF:16:1,2010-07-11T09:00:00Z,26.4345,-81.9647,2.494,4.97,1111122 
SCCF RECON,ioos:station:SCCF:16:1,2010-07-11T10:00:00Z,26.4345,-81.9647,2.468,5.29,1111122 
SCCF RECON,ioos:station:SCCF:16:1,2010-07-11T11:00:00Z,26.4345,-81.9647,2.506,5.18,1111122 
SCCF RECON,ioos:station:SCCF:16:1,2010-07-11T12:00:00Z,26.4345,-81.9647,2.578,5.14,1111122 
SCCF RECON,ioos:station:SCCF:16:1,2010-07-11T13:00:00Z,26.4345,-81.9647,2.735,5.05,1111122 
SCCF RECON,ioos:station:SCCF:16:1,2010-07-11T14:00:00Z,26.4345,-81.9647,2.867,4.93,1111122 
SCCF RECON,ioos:station:SCCF:16:1,2010-07-11T15:00:00Z,26.4345,-81.9647,2.967,4.93,1111122 
SCCF RECON,ioos:station:SCCF:16:1,2010-07-11T16:00:00Z,26.4345,-81.9647,3.009,5.09,1111122 
SCCF RECON,ioos:station:SCCF:16:1,2010-07-11T17:00:00Z,26.4345,-81.9647,2.984,5.08,1111122 
SCCF RECON,ioos:station:SCCF:16:1,2010-07-11T18:00:00Z,26.4345,-81.9647,2.86,5.05,1111122 
SCCF RECON,ioos:station:SCCF:16:1,2010-07-11T19:00:00Z,26.4345,-81.9647,2.664,5.19,1111122 